| time (UTC) | temp F | wind direction | speed MPH | gust MPH | rain 1hr in | rain 24hr in | rain mn in | humidity % | barometer mb |
| 20260508074933 | 44 | 225 | 0.0 | 2.0 | 0.00 | 0.03 | 0.00 | 90 | 1012.8 |
| 20260508073747 | 44 | 241 | 0.0 | 0.0 | 0.00 | 0.03 | 0.00 | 90 | 1012.8 |
| 20260508072609 | 43 | 118 | 0.0 | 0.0 | 0.00 | 0.03 | 0.00 | 90 | 1012.7 |
| 20260508071403 | 43 | 131 | 0.0 | 1.0 | 0.00 | 0.03 | 0.00 | 90 | 1012.8 |
| 20260508070157 | 43 | 131 | 0.0 | 1.0 | 0.00 | 0.03 | 0.00 | 90 | 1012.9 |
| 20260508063748 | 43 | 131 | 0.0 | 2.0 | 0.00 | 0.03 | 0.00 | 90 | 1013.1 |
| 20260508062617 | 43 | 267 | 0.0 | 0.0 | 0.00 | 0.03 | 0.00 | 90 | 1013.2 |
| 20260508061424 | 43 | 267 | 0.0 | 0.0 | 0.00 | 0.03 | 0.00 | 89 | 1013.1 |
| 20260508060253 | 43 | 267 | 0.0 | 1.0 | 0.00 | 0.03 | 0.00 | 90 | 1013.2 |
| 20260508055039 | 44 | 267 | 0.0 | 0.0 | 0.00 | 0.03 | 0.00 | 90 | 1013.3 |
| 20260508053843 | 44 | 267 | 0.0 | 0.0 | 0.00 | 0.03 | 0.00 | 90 | 1013.5 |
| 20260508052708 | 44 | 267 | 0.0 | 0.0 | 0.00 | 0.03 | 0.00 | 90 | 1013.5 |
| 20260508051517 | 44 | 267 | 0.0 | 0.0 | 0.00 | 0.03 | 0.00 | 90 | 1013.5 |
| 20260508050314 | 44 | 267 | 0.0 | 0.0 | 0.00 | 0.03 | 0.00 | 89 | 1013.5 |
| 20260508045053 | 44 | 267 | 0.0 | 0.0 | 0.00 | 0.03 | 0.00 | 89 | 1013.5 |
| 20260508043829 | 45 | 267 | 0.0 | 0.0 | 0.00 | 0.03 | 0.00 | 89 | 1013.4 |
| 20260508042630 | 45 | 267 | 0.0 | 0.0 | 0.00 | 0.03 | 0.00 | 89 | 1013.5 |
| 20260508041437 | 45 | 267 | 0.0 | 0.0 | 0.00 | 0.03 | 0.00 | 89 | 1013.5 |
| 20260508040226 | 45 | 267 | 0.0 | 2.0 | 0.00 | 0.03 | 0.00 | 88 | 1013.5 |
| 20260508035025 | 46 | 267 | 0.0 | 0.0 | 0.00 | 0.03 | 0.03 | 88 | 1013.6 |
| 20260508033805 | 46 | 267 | 0.0 | 0.0 | 0.00 | 0.03 | 0.03 | 88 | 1013.5 |
| 20260508032632 | 46 | 267 | 0.0 | 0.0 | 0.00 | 0.03 | 0.03 | 88 | 1013.7 |
| 20260508031421 | 47 | 267 | 0.0 | 0.0 | 0.00 | 0.03 | 0.03 | 87 | 1013.8 |
| 20260508030150 | 47 | 267 | 0.0 | 2.0 | 0.00 | 0.03 | 0.03 | 86 | 1014.1 |
| 20260508025005 | 48 | 267 | 0.0 | 0.0 | 0.04 | 0.03 | 0.03 | 84 | 1014.1 |
| 20260508023757 | 49 | 258 | 1.0 | 0.0 | 0.04 | 0.02 | 0.02 | 82 | 1014.1 |
| 20260508022551 | 50 | 56 | 0.0 | 3.0 | 0.20 | 0.02 | 0.02 | 80 | 1014.0 |
| 20260508021330 | 52 | 348 | 1.0 | 7.0 | 0.00 | 0.00 | 0.00 | 74 | 1014.0 |
| 20260508020053 | 51 | 209 | 0.0 | 6.0 | 0.00 | 0.00 | 0.00 | 73 | 1012.9 |
| 20260508014822 | 51 | 121 | 0.0 | 7.0 | 0.00 | 0.00 | 0.00 | 74 | 1012.7 |
| 20260508013601 | 50 | 152 | 0.0 | 0.0 | 0.00 | 0.00 | 0.00 | 75 | 1012.5 |
| 20260508012406 | 50 | 58 | 0.0 | 2.0 | 0.00 | 0.00 | 0.00 | 74 | 1012.4 |
| 20260508011236 | 50 | 174 | 0.0 | 4.0 | 0.00 | 0.00 | 0.00 | 73 | 1012.5 |
| 20260508010036 | 50 | 149 | 0.0 | 4.0 | 0.00 | 0.00 | 0.00 | 72 | 1012.8 |
| 20260508004813 | 51 | 142 | 0.0 | 2.0 | 0.00 | 0.00 | 0.00 | 71 | 1013.0 |
| 20260508003618 | 52 | 165 | 0.0 | 8.0 | 0.00 | 0.00 | 0.00 | 67 | 1012.9 |
| 20260508002428 | 52 | 114 | 0.0 | 8.0 | 0.00 | 0.00 | 0.00 | 67 | 1012.9 |
| 20260508001237 | 53 | 127 | 0.0 | 4.0 | 0.00 | 0.00 | 0.00 | 64 | 1013.0 |
| 20260508000041 | 53 | 119 | 0.0 | 4.0 | 0.00 | 0.00 | 0.00 | 64 | 1013.2 |
| 20260507234858 | 54 | 65 | 1.0 | 9.0 | 0.00 | 0.00 | 0.00 | 65 | 1013.3 |
| 20260507233726 | 54 | 119 | 1.0 | 9.0 | 0.00 | 0.00 | 0.00 | 61 | 1013.4 |
| 20260507232452 | 54 | 127 | 1.0 | 8.0 | 0.00 | 0.00 | 0.00 | 59 | 1013.4 |
| 20260507231248 | 54 | 35 | 1.0 | 6.0 | 0.00 | 0.00 | 0.00 | 60 | 1013.3 |
| 20260507230010 | 55 | 250 | 0.0 | 3.0 | 0.00 | 0.00 | 0.00 | 58 | 1013.5 |
| 20260507224748 | 55 | 26 | 0.0 | 4.0 | 0.00 | 0.00 | 0.00 | 56 | 1013.6 |
| 20260507223523 | 55 | 267 | 1.0 | 9.0 | 0.00 | 0.00 | 0.00 | 56 | 1013.8 |
| 20260507222321 | 55 | 229 | 0.0 | 8.0 | 0.00 | 0.00 | 0.00 | 58 | 1014.1 |
| 20260507221105 | 55 | 13 | 1.0 | 14.0 | 0.00 | 0.00 | 0.00 | 57 | 1014.2 |
| 20260507215903 | 55 | 348 | 1.0 | 6.0 | 0.00 | 0.00 | 0.00 | 58 | 1014.3 |
| 20260507214732 | 55 | 351 | 0.0 | 3.0 | 0.00 | 0.00 | 0.00 | 59 | 1014.2 |
| 20260507213455 | 55 | 302 | 0.0 | 0.0 | 0.00 | 0.00 | 0.00 | 59 | 1014.2 |
| 20260507212219 | 55 | 309 | 0.0 | 6.0 | 0.00 | 0.00 | 0.00 | 57 | 1014.1 |
| 20260507210957 | 56 | 9 | 0.0 | 11.0 | 0.00 | 0.00 | 0.00 | 56 | 1014.2 |
| 20260507205748 | 57 | 342 | 0.0 | 9.0 | 0.00 | 0.00 | 0.00 | 50 | 1014.1 |
| 20260507204536 | 57 | 317 | 0.0 | 6.0 | 0.00 | 0.00 | 0.00 | 49 | 1013.8 |
| 20260507203407 | 58 | 245 | 1.0 | 9.0 | 0.00 | 0.00 | 0.00 | 43 | 1013.7 |
| 20260507202219 | 60 | 115 | 1.0 | 9.0 | 0.00 | 0.00 | 0.00 | 45 | 1013.5 |
| 20260507201039 | 60 | 305 | 1.0 | 9.0 | 0.00 | 0.00 | 0.00 | 44 | 1013.7 |
| 20260507195854 | 60 | 302 | 3.0 | 11.0 | 0.00 | 0.00 | 0.00 | 41 | 1013.6 |
| 20260507194710 | 59 | 351 | 1.0 | 11.0 | 0.00 | 0.00 | 0.00 | 40 | 1014.0 |
| 20260507193525 | 59 | 5 | 1.0 | 11.0 | 0.00 | 0.00 | 0.00 | 42 | 1014.1 |
| 20260507192305 | 60 | 329 | 1.0 | 7.0 | 0.00 | 0.00 | 0.00 | 42 | 1014.3 |
| 20260507191023 | 60 | 342 | 1.0 | 12.0 | 0.00 | 0.00 | 0.00 | 43 | 1014.3 |
| 20260507185800 | 60 | 313 | 3.0 | 11.0 | 0.00 | 0.00 | 0.00 | 42 | 1014.4 |
| 20260507184614 | 59 | 332 | 1.0 | 9.0 | 0.00 | 0.00 | 0.00 | 47 | 1014.4 |
| 20260507183441 | 59 | 307 | 3.0 | 8.0 | 0.00 | 0.00 | 0.00 | 46 | 1014.4 |
| 20260507182208 | 59 | 211 | 1.0 | 16.0 | 0.00 | 0.00 | 0.00 | 47 | 1014.7 |
| 20260507180943 | 60 | 327 | 3.0 | 16.0 | 0.00 | 0.00 | 0.00 | 41 | 1014.7 |
| 20260507175744 | 59 | 243 | 1.0 | 8.0 | 0.00 | 0.00 | 0.00 | 45 | 1014.9 |
| 20260507174548 | 57 | 333 | 3.0 | 11.0 | 0.00 | 0.00 | 0.00 | 44 | 1015.0 |
| 20260507173412 | 59 | 19 | 1.0 | 14.0 | 0.00 | 0.00 | 0.00 | 49 | 1015.1 |
| 20260507172154 | 58 | 335 | 3.0 | 14.0 | 0.00 | 0.00 | 0.00 | 45 | 1015.3 |
| 20260507170943 | 58 | 327 | 1.0 | 18.0 | 0.00 | 0.00 | 0.00 | 48 | 1015.4 |
| 20260507165741 | 58 | 51 | 3.0 | 18.0 | 0.00 | 0.00 | 0.00 | 51 | 1015.7 |
| 20260507164551 | 57 | 5 | 1.0 | 15.0 | 0.00 | 0.00 | 0.00 | 44 | 1016.0 |
| 20260507163316 | 58 | 21 | 1.0 | 12.0 | 0.00 | 0.00 | 0.00 | 50 | 1016.2 |
| 20260507162037 | 56 | 350 | 4.0 | 12.0 | 0.00 | 0.00 | 0.00 | 44 | 1016.4 |
| 20260507160804 | 56 | 296 | 4.0 | 15.0 | 0.00 | 0.00 | 0.00 | 50 | 1016.3 |
| 20260507155548 | 55 | 346 | 4.0 | 15.0 | 0.00 | 0.00 | 0.00 | 47 | 1016.4 |
| 20260507154347 | 55 | 331 | 1.0 | 15.0 | 0.00 | 0.00 | 0.00 | 51 | 1016.3 |
| 20260507153357 | 55 | 346 | 1.0 | 7.0 | 0.00 | 0.00 | 0.00 | 56 | 1016.4 |
| 20260507153108 | 55 | 346 | 1.0 | 7.0 | 0.00 | 0.00 | 0.00 | 56 | 1016.4 |
| 20260507152230 | 54 | 281 | 1.0 | 11.0 | 0.00 | 0.00 | 0.00 | 50 | 1016.2 |
| 20260507151830 | 54 | 281 | 1.0 | 11.0 | 0.00 | 0.00 | 0.00 | 50 | 1016.2 |
| 20260507150559 | 53 | 22 | 3.0 | 12.0 | 0.00 | 0.00 | 0.00 | 53 | 1016.1 |
| 20260507145430 | 53 | 5 | 1.0 | 14.0 | 0.00 | 0.00 | 0.00 | 55 | 1016.0 |
| 20260507144156 | 52 | 300 | 1.0 | 8.0 | 0.00 | 0.00 | 0.00 | 57 | 1016.2 |
| 20260507142948 | 52 | 5 | 1.0 | 6.0 | 0.00 | 0.00 | 0.00 | 58 | 1016.4 |
| 20260507141710 | 51 | 275 | 0.0 | 11.0 | 0.00 | 0.00 | 0.00 | 61 | 1016.4 |
| 20260507140506 | 51 | 44 | 1.0 | 9.0 | 0.00 | 0.00 | 0.00 | 57 | 1016.4 |
| 20260507135335 | 50 | 0 | 0.0 | 9.0 | 0.00 | 0.00 | 0.00 | 58 | 1016.4 |
| 20260507134141 | 49 | 311 | 1.0 | 7.0 | 0.00 | 0.00 | 0.00 | 63 | 1016.4 |
| 20260507132905 | 47 | 67 | 1.0 | 11.0 | 0.00 | 0.00 | 0.00 | 61 | 1016.3 |
| 20260507131634 | 47 | 0 | 1.0 | 11.0 | 0.00 | 0.00 | 0.00 | 65 | 1016.3 |
| 20260507130419 | 46 | 294 | 0.0 | 3.0 | 0.00 | 0.00 | 0.00 | 66 | 1016.4 |
| 20260507125247 | 45 | 313 | 0.0 | 3.0 | 0.00 | 0.00 | 0.00 | 66 | 1016.2 |
| 20260507124056 | 44 | 327 | 0.0 | 3.0 | 0.00 | 0.00 | 0.00 | 69 | 1016.1 |
| 20260507122820 | 43 | 346 | 0.0 | 3.0 | 0.00 | 0.00 | 0.00 | 72 | 1016.3 |
| 20260507121634 | 43 | 0 | 0.0 | 3.0 | 0.00 | 0.00 | 0.00 | 73 | 1016.3 |
| 20260507120438 | 42 | 207 | 0.0 | 0.0 | 0.00 | 0.00 | 0.00 | 75 | 1016.4 |
| 20260507115238 | 41 | 206 | 0.0 | 0.0 | 0.00 | 0.00 | 0.00 | 77 | 1016.2 |
| 20260507114057 | 41 | 206 | 0.0 | 0.0 | 0.00 | 0.00 | 0.00 | 77 | 1016.3 |
| 20260507112840 | 41 | 203 | 0.0 | 0.0 | 0.00 | 0.00 | 0.00 | 78 | 1016.1 |
| 20260507111608 | 40 | 203 | 0.0 | 0.0 | 0.00 | 0.00 | 0.00 | 79 | 1015.9 |
| 20260507110357 | 40 | 203 | 0.0 | 0.0 | 0.00 | 0.00 | 0.00 | 80 | 1015.9 |
| 20260507105211 | 39 | 203 | 0.0 | 0.0 | 0.00 | 0.00 | 0.00 | 81 | 1015.8 |
| 20260507103943 | 39 | 203 | 0.0 | 0.0 | 0.00 | 0.00 | 0.00 | 81 | 1015.6 |
| 20260507102705 | 40 | 203 | 0.0 | 0.0 | 0.00 | 0.00 | 0.00 | 80 | 1015.6 |
| 20260507101529 | 40 | 203 | 0.0 | 0.0 | 0.00 | 0.00 | 0.00 | 80 | 1015.6 |
| 20260507100359 | 40 | 203 | 0.0 | 0.0 | 0.00 | 0.00 | 0.00 | 78 | 1015.6 |
| 20260507095201 | 40 | 203 | 0.0 | 0.0 | 0.00 | 0.00 | 0.00 | 79 | 1015.6 |
| 20260507093932 | 39 | 203 | 0.0 | 0.0 | 0.00 | 0.00 | 0.00 | 80 | 1015.4 |
| 20260507092749 | 39 | 203 | 0.0 | 0.0 | 0.00 | 0.00 | 0.00 | 81 | 1015.5 |
| 20260507091516 | 38 | 203 | 0.0 | 0.0 | 0.00 | 0.00 | 0.00 | 82 | 1015.4 |
| 20260507090329 | 38 | 203 | 0.0 | 0.0 | 0.00 | 0.00 | 0.00 | 83 | 1015.5 |
| 20260507085058 | 38 | 203 | 0.0 | 0.0 | 0.00 | 0.00 | 0.00 | 83 | 1015.5 |
| 20260507083926 | 38 | 203 | 0.0 | 0.0 | 0.00 | 0.00 | 0.00 | 84 | 1015.3 |
| 20260507082657 | 38 | 203 | 0.0 | 0.0 | 0.00 | 0.00 | 0.00 | 84 | 1015.2 |
| 20260507081431 | 38 | 203 | 0.0 | 0.0 | 0.00 | 0.00 | 0.00 | 84 | 1015.3 |
| 20260507080212 | 38 | 203 | 0.0 | 0.0 | 0.00 | 0.00 | 0.00 | 84 | 1015.4 |